Home   Weather   Altus   Past weeks
Flag for USA

Past Weather in Altus, Oklahoma, USA — Yesterday and Last 2 Weeks

Now
40 °F

Sunny.


Feels Like: 29 °F
Forecast: 40 / 27 °F
Wind: 23 mph from North

Location: Altus Air Force Base

Current Time: Jan 19, 2019 at 2:44:52 pm

Latest Report: Jan 19, 2019 at 1:56 pm


Visibility: 10 mi

Pressure: 30.29 "Hg

Humidity: 33%

Dew Point: 13 °F

Location of AltusLocation

Past Weather in Altus — Graph

°F

Altus Temperature Yesterday

Maximum temperature yesterday: 72 °F (at 3:56 pm)
Minimum temperature yesterday: 36 °F (at 5:56 am)
Average temperature yesterday: 46 °F

High & Low Weather Summary for the Past Weeks

 TemperatureHumidityPressure
High72 °F (Jan 18, 3:56 pm)100% (Jan 11, 8:22 am)30.63 "Hg (Jan 11, 8:22 am)
Low26 °F (Jan 9, 6:56 am)22% (Jan 9, 2:56 pm)29.49 "Hg (Jan 18, 4:56 pm)
Average43 °F74%30.10 "Hg
* Reported Jan 4 12:56 pm — Jan 19 12:56 pm, Altus. Weather by CustomWeather, © 2019

Note: Actual official high and low records may vary slightly from our data, if they occured in-between our weather recording intervals... More about our weather records

Advertising

Altus Weather History for the Previous 24 Hours

Scroll right to see more
 ConditionsComfort  
Time TempWeatherWind HumidityBarometerVisibility
12:56 pm
Sat, Jan 19
38 °FSunny.24 mph36%30.31 "Hg10 mi
12:31 pm37 °FStrong thunderstorms. Sunny.26 mph38%30.32 "Hg10 mi
11:56 am37 °FSunny.23 mph38%30.32 "Hg10 mi
10:56 am34 °FSunny.24 mph46%30.32 "Hg10 mi
9:56 am32 °FPassing clouds.22 mph52%30.29 "Hg10 mi
9:11 am30 °FPassing clouds.18 mph59%30.28 "Hg10 mi
8:56 am31 °FPartly sunny.21 mph59%30.27 "Hg10 mi
7:56 am29 °FOvercast.21 mph62%30.23 "Hg10 mi
7:26 am28 °FPassing clouds.22 mph69%30.22 "Hg10 mi
6:56 am30 °FPassing clouds.25 mph62%30.19 "Hg10 mi
5:56 am31 °FOvercast.16 mph62%30.13 "Hg10 mi
5:26 am32 °FOvercast.30 mph60%30.12 "Hg10 mi
4:56 am32 °FMostly cloudy.26 mph60%30.11 "Hg10 mi
4:41 am32 °FMostly cloudy.22 mph64%30.09 "Hg10 mi
4:11 am34 °FMostly cloudy.25 mph65%30.08 "Hg10 mi
3:56 am34 °FOvercast.26 mph66%30.06 "Hg10 mi
2:56 am34 °FOvercast.26 mph69%30.03 "Hg10 mi
2:14 am34 °FMostly cloudy.26 mph70%30.00 "Hg10 mi
1:56 am34 °FOvercast.29 mph71%29.98 "Hg10 mi
1:40 am34 °FOvercast.32 mph75%29.96 "Hg10 mi
1:25 am34 °FMostly cloudy.29 mph81%29.95 "Hg10 mi
1:04 am36 °FLight rain. Overcast.32 mph75%29.93 "Hg10 mi
12:56 am35 °FLight rain. Mostly cloudy.30 mph79%29.93 "Hg10 mi
12:06 am36 °FLight rain. Overcast.35 mph81%29.90 "Hg9 mi
11:28 pm
Fri, Jan 18
37 °FRain. Mostly cloudy.31 mph81%29.84 "Hg8 mi
11:23 pm37 °FLight rain. Mostly cloudy.37 mph81%29.83 "Hg10 mi
10:56 pm39 °FLight rain. Overcast.36 mph76%29.84 "Hg10 mi
10:34 pm41 °FDrizzle. Overcast.31 mph70%29.82 "Hg10 mi
9:56 pm43 °FOvercast.24 mph69%29.78 "Hg10 mi
9:41 pm45 °FOvercast.26 mph71%29.77 "Hg10 mi
9:21 pm46 °FOvercast.31 mph71%29.72 "Hg10 mi
8:56 pm47 °FPassing clouds.29 mph70%29.72 "Hg10 mi
8:20 pm48 °FStrong thunderstorms. Clear.33 mph66%29.68 "Hg10 mi
7:56 pm50 °FClear.25 mph64%29.67 "Hg10 mi
5:56 pm65 °FClear.9 mph32%29.52 "Hg10 mi
4:56 pm71 °FSunny.12 mph25%29.49 "Hg10 mi
4:40 pm72 °FSunny.13 mph31%29.51 "Hg10 mi
3:56 pm72 °FSunny.15 mph29%29.52 "Hg10 mi
2:56 pm68 °FSunny.14 mph37%29.53 "Hg10 mi
Weather by CustomWeather, © 2019

See weather overview